Terminal Aerodrome Forecast
Issued by NWS Sioux Falls, SD

Home | Current Version | Previous Version | Text Only | Print | Product List | Glossary On
Versions: 1 2 3 4 5 6 7 8 9 10 11 12 13 14 15 16 17 18 19 20 21 22 23 24 25 26 27 28 29
000
FTUS43 KFSD 152331
TAFSUX
TAF
KSUX 152331Z 1600/1624 VRB03KT P6SM SKC
     FM161000 VRB03KT P6SM MIFG SKC
     FM161400 18008KT P6SM SCT030=

USA.gov is the U.S. government's official web portal to all federal, state and local government web resources and services.